Regional Weather Roundup
Issued by NWS

Home | Current Version | Previous Version | Graphics & Text | Print | Product List | Glossary On
Versions: 1 2 3 4 5 6 7 8 9 10 11 12 13 14 15 16 17 18 19 20 21 22 23 24 25 26 27 28 29 30 31 32 33 34 35 36 37 38 39 40 41 42 43 44 45 46 47 48 49 50
000
ASUS43 KIND 270009
RWRIN

WEATHER ROUNDUP FOR INDIANA
NATIONAL WEATHER SERVICE INDIANAPOLIS IN
800 PM EDT FRI MAY 26 2017

NOTE: "FAIR" INDICATES FEW OR NO CLOUDS BELOW 12,000 FEET WITH NO
SIGNIFICANT WEATHER AND/OR OBSTRUCTIONS TO VISIBILITY.

* - STATION DOES NOT REPORT WEATHER SUCH AS PRECIPITATION OR FOG.

+ - STATION NOT QUALITY CONTROLLED BY THE NATIONAL WEATHER SERVICE.
    USE DATA WITH CAUTION...ESPECIALLY DEWPOINT AND RELATIVE
    HUMIDITY OBSERVATIONS.

INZ001>003-010>013-019-020-270100-
NORTHWEST INDIANA

CITY           SKY/WX    TMP DP  RH WIND       PRES   REMARKS
GARY /AIRPORT/ LGT RAIN  59  55  88 N7        29.83R
KNOX *+        CLOUDY    63  54  72 E9        29.78R
LA PORTE +     CLOUDY    63  60  91 E7        29.80F
6HR MIN TEMP:  63; 6HR MAX TEMP:  73; 6HR PCP:  0.16;

MICHIGAN CITY+ LGT RAIN  61  61 100 CALM      29.80F
MONTICELLO +   RAIN      66  62  88 SE5G16    29.77F
6HR MIN TEMP:  65; 6HR MAX TEMP:  76; 6HR PCP:  0.16;

RENSSELAER +   CLOUDY    64  61  88 E6        29.79R
VALPARAISO     CLOUDY    64  62  93 E7        29.79R
6HR MIN TEMP:  64; 6HR MAX TEMP:  76; 6HR PCP:  0.22;


$$

LMZ046-743>745-270100-
SOUTHERN LAKE MICHIGAN

STATION/POSITION TIME  TEMP    WIND        PRES    WAVE
                       AIR SEA DIR/SP/G            HT
                 (UTC) (F)     (DEG/KT/KT) (MB)    (FT)
BURNS HARBOR     2340   57      80/ 12/ 14 1008.8F
MICHIGAN CITY    2340   57      50/ 13/ 14   N/A
5NW MICH CITY    0000   54 53   50/ 14/ 17   N/A     2

$$

INZ004-005-014>016-021>024-270100-
NORTH CENTRAL INDIANA

CITY           SKY/WX    TMP DP  RH WIND       PRES   REMARKS
ELKHART        TSTM      63  59  88 E8        29.84R
GOSHEN         RAIN      64  59  83 E3        29.85R
6HR MIN TEMP:  65; 6HR MAX TEMP:  73; 6HR PCP:  0.11;

LOGANSPORT +   HVY RAIN  64  61  88 NE5       29.83R
PERU/GRISSOM   TSTM      67  67  97 NE6       29.80R FOG
6HR MIN TEMP:  67; 6HR MAX TEMP:  76; 6HR PCP:  0.06;

ROCHESTER +    CLOUDY    66  63  88 E8        29.81F
SOUTH BEND     LGT RAIN  61  58  90 E10       29.80F
6HR MIN TEMP:  61; 6HR MAX TEMP:  71; 6HR PCP:  0.17;

WARSAW +       HVY RAIN  63  61  94 E5        29.84R

$$

INZ006>009-017-018-025>027-270100-
NORTHEAST INDIANA

CITY           SKY/WX    TMP DP  RH WIND       PRES   REMARKS
ANGOLA *+      CLEAR     68  61  77 SW5       29.85R
AUBURN +       CLOUDY    68  55  64 E3        29.85S
FORT WAYNE     CLOUDY    69  58  67 E7        29.84S
6HR MIN TEMP:  69; 6HR MAX TEMP:  72;

HUNTINGTON +   TSTM      67  61  80 CALM      29.83F
KENDALLVILLE + CLOUDY    67  57  71 CALM      29.86S

$$

INZ028-029-035-036-043>045-051>053-270100-
WEST CENTRAL INDIANA

CITY           SKY/WX    TMP DP  RH WIND       PRES   REMARKS
CRAWFORDSVL +  CLOUDY    72  63  73 S17       29.72F
6HR MIN TEMP:  71; 6HR MAX TEMP:  76;

GREENCASTLE +  CLOUDY    73  61  64 S9        29.79S
LAFAYETTE      TSTM      69  63  81 SE3       29.76R
6HR MIN TEMP:  69; 6HR MAX TEMP:  76; 6HR PCP:  0.09;

TERRE HAUTE    CLOUDY    75  59  57 S7        29.77S
6HR MIN TEMP:  75; 6HR MAX TEMP:  81;


$$

INZ030>032-037>040-046>048-054>057-064-065-270100-
CENTRAL INDIANA

CITY           SKY/WX    TMP DP  RH WIND       PRES   REMARKS
CP ATTERBURY + CLOUDY    73  63  68 SE6       29.83S
COLUMBUS       MOCLDY    73  59  60 S9        29.83R
FRANKFORT +    TSTM      73  64  73 SE8       29.80S
6HR MIN TEMP:  73; 6HR MAX TEMP:  80;

GREENWOOD *+   CLOUDY    75  62  63 S8        29.81F
6HR MIN TEMP:  74; 6HR MAX TEMP:  78;

INDIANAPOLIS   CLOUDY    75  63  66 SE12      29.78F
6HR MIN TEMP:  74; 6HR MAX TEMP:  78;

-EAGLE CREEK   CLOUDY    76  61  59 SE9       29.76F
6HR MIN TEMP:  75; 6HR MAX TEMP:  78;

KOKOMO +       LGT RAIN  70  63  78 SE8       29.81S
6HR MIN TEMP:  70; 6HR MAX TEMP:  75; 6HR PCP:  0.04;

MARION +       LGT RAIN  72  61  68 SE6       29.83R
MT COMFORT *+  CLOUDY    73  61  64 S8        29.82S
SHELBYVILLE    LGT RAIN  77  61  57 SE10      29.81S
6HR MIN TEMP:  76; 6HR MAX TEMP:  80; 6HR PCP: TRACE;

ZIONSVILLE +   CLOUDY    72  61  67 SE9       29.79F
6HR MIN TEMP:  71; 6HR MAX TEMP:  76;


$$

INZ033-034-041-042-049-050-058-059-270100-
EAST CENTRAL INDIANA

CITY           SKY/WX    TMP DP  RH WIND       PRES   REMARKS
MUNCIE         CLOUDY    75  58  55 S6        29.82S
6HR MIN TEMP:  72; 6HR MAX TEMP:  78;

RICHMOND +     PTCLDY    70  61  73 S8        29.87R

$$

INZ060-061-067>069-081>083-085>088-270100-
SOUTHWEST INDIANA

CITY           SKY/WX    TMP DP  RH WIND       PRES   REMARKS
EVANSVILLE     CLOUDY    79  59  50 SW10      29.81R
6HR MIN TEMP:  79; 6HR MAX TEMP:  85;

HUNTINGBURG *+ CLOUDY    78  62  57 S8        29.81S
6HR MIN TEMP:  77; 6HR MAX TEMP:  82;

WASHINGTON +   CLOUDY    77  59  53 S7        29.78F
6HR MIN TEMP:  76; 6HR MAX TEMP:  82;


$$

INZ062-063-066-070>080-084-089>092-270100-
SOUTH CENTRAL AND SOUTHEAST INDIANA

CITY           SKY/WX    TMP DP  RH WIND       PRES   REMARKS
BLOOMINGTON    CLOUDY    76  60  57 S6        29.81S
6HR MIN TEMP:  76; 6HR MAX TEMP:  81;

MADISON *+     CLOUDY    75  61  60 SE6       29.86S
NORTH VERNON + CLOUDY    73  63  68 SE3       29.85S
SEYMOUR +      CLOUDY    77  63  61 S3        29.83R

$$




USA.gov is the U.S. government's official web portal to all federal, state and local government web resources and services.